Time,TemperatureF,DewpointF,PressureIn,WindDirection,WindDirectionDegrees,WindSpeedMPH,WindSpeedGustMPH,Humidity,HourlyPrecipIn,Conditions,Clouds,dailyrainin,SolarRadiationWatts/m^2,SoftwareType,DateUTC
2013-05-19 00:12:00,50.1,49.0,30.31,South,169,0.0,0.0,94,0.00,,,0.00,0,weatherlink.com 1.10,2013-05-19 04:12:00,
2013-05-19 00:27:00,49.4,48.0,30.31,South,169,0.0,0.0,94,0.00,,,0.00,0,weatherlink.com 1.10,2013-05-19 04:27:00,
2013-05-19 00:42:00,49.5,48.0,30.31,South,169,0.0,0.0,95,0.00,,,0.00,0,weatherlink.com 1.10,2013-05-19 04:42:00,
2013-05-19 00:58:00,48.8,48.0,30.31,South,169,0.0,0.0,95,0.00,,,0.00,0,weatherlink.com 1.10,2013-05-19 04:58:00,
2013-05-19 01:13:00,48.7,47.0,30.31,South,169,0.0,0.0,95,0.00,,,0.00,0,weatherlink.com 1.10,2013-05-19 05:13:00,
2013-05-19 01:28:00,48.2,47.0,30.30,South,169,0.0,0.0,95,0.00,,,0.00,0,weatherlink.com 1.10,2013-05-19 05:28:00,
2013-05-19 01:43:00,48.1,47.0,30.30,South,169,0.0,0.0,95,0.00,,,0.00,0,weatherlink.com 1.10,2013-05-19 05:43:00,
2013-05-19 01:58:00,47.5,46.0,30.30,South,169,0.0,0.0,95,0.00,,,0.00,0,weatherlink.com 1.10,2013-05-19 05:58:00,
2013-05-19 02:13:00,47.3,46.0,30.30,South,169,0.0,0.0,95,0.00,,,0.00,0,weatherlink.com 1.10,2013-05-19 06:13:00,
2013-05-19 02:28:00,47.1,46.0,30.30,South,169,0.0,0.0,95,0.00,,,0.00,0,weatherlink.com 1.10,2013-05-19 06:28:00,
2013-05-19 02:43:00,47.1,46.0,30.30,South,169,0.0,0.0,95,0.00,,,0.00,0,weatherlink.com 1.10,2013-05-19 06:43:00,
2013-05-19 02:58:00,46.8,46.0,30.30,South,169,0.0,0.0,95,0.00,,,0.00,0,weatherlink.com 1.10,2013-05-19 06:58:00,
2013-05-19 03:13:00,46.8,46.0,30.30,South,169,0.0,1.0,96,0.00,,,0.00,0,weatherlink.com 1.10,2013-05-19 07:13:00,
2013-05-19 03:28:00,46.8,46.0,30.30,South,169,0.0,0.0,96,0.00,,,0.00,0,weatherlink.com 1.10,2013-05-19 07:28:00,
2013-05-19 03:43:00,46.7,45.0,30.30,South,169,0.0,0.0,95,0.00,,,0.00,0,weatherlink.com 1.10,2013-05-19 07:43:00,
2013-05-19 03:58:00,46.4,45.0,30.31,South,169,0.0,0.0,96,0.00,,,0.00,0,weatherlink.com 1.10,2013-05-19 07:58:00,
2013-05-19 04:13:00,46.2,45.0,30.31,South,169,0.0,0.0,96,0.00,,,0.00,0,weatherlink.com 1.10,2013-05-19 08:13:00,
2013-05-19 04:28:00,46.3,45.0,30.31,South,169,0.0,1.0,96,0.00,,,0.00,0,weatherlink.com 1.10,2013-05-19 08:28:00,
2013-05-19 04:43:00,46.2,45.0,30.31,South,185,0.0,0.0,96,0.00,,,0.00,0,weatherlink.com 1.10,2013-05-19 08:43:00,
2013-05-19 04:58:00,46.2,45.0,30.31,South,185,0.0,0.0,96,0.00,,,0.00,0,weatherlink.com 1.10,2013-05-19 08:58:00,
2013-05-19 05:13:00,46.4,45.0,30.31,South,185,0.0,1.0,96,0.00,,,0.00,0,weatherlink.com 1.10,2013-05-19 09:13:00,
2013-05-19 05:28:00,46.5,46.0,30.32,South,185,0.0,0.0,96,0.00,,,0.00,5,weatherlink.com 1.10,2013-05-19 09:28:00,
2013-05-19 05:44:00,46.8,46.0,30.32,South,185,0.0,0.0,96,0.00,,,0.00,5,weatherlink.com 1.10,2013-05-19 09:44:00,
2013-05-19 05:58:00,47.0,46.0,30.32,South,185,0.0,1.0,96,0.00,,,0.00,12,weatherlink.com 1.10,2013-05-19 09:58:00,
2013-05-19 06:14:00,47.4,46.0,30.33,South,185,0.0,2.0,96,0.00,,,0.00,30,weatherlink.com 1.10,2013-05-19 10:14:00,
2013-05-19 06:28:00,47.8,47.0,30.33,South,185,0.0,0.0,96,0.00,,,0.00,44,weatherlink.com 1.10,2013-05-19 10:28:00,
2013-05-19 06:44:00,48.7,48.0,30.33,South,185,0.0,0.0,96,0.00,,,0.00,67,weatherlink.com 1.10,2013-05-19 10:44:00,
2013-05-19 06:59:00,49.6,48.0,30.34,South,185,0.0,1.0,95,0.00,,,0.00,79,weatherlink.com 1.10,2013-05-19 10:59:00,
2013-05-19 07:14:00,50.7,49.0,30.34,South,185,0.0,0.0,95,0.00,,,0.00,62,weatherlink.com 1.10,2013-05-19 11:14:00,
2013-05-19 07:30:00,52.3,51.0,30.34,South,185,0.0,1.0,94,0.00,,,0.00,93,weatherlink.com 1.10,2013-05-19 11:30:00,
2013-05-19 07:45:00,53.7,52.0,30.34,South,185,0.0,0.0,93,0.00,,,0.00,139,weatherlink.com 1.10,2013-05-19 11:45:00,
2013-05-19 08:00:00,54.4,52.0,30.34,South,185,0.0,1.0,90,0.00,,,0.00,179,weatherlink.com 1.10,2013-05-19 12:00:00,
2013-05-19 08:15:00,55.4,52.0,30.34,South,185,0.0,1.0,89,0.00,,,0.00,204,weatherlink.com 1.10,2013-05-19 12:15:00,
2013-05-19 08:30:00,56.8,53.0,30.34,South,185,0.0,1.0,86,0.00,,,0.00,207,weatherlink.com 1.10,2013-05-19 12:30:00,
2013-05-19 08:46:00,58.0,53.0,30.34,South,184,0.0,3.0,84,0.00,,,0.00,244,weatherlink.com 1.10,2013-05-19 12:46:00,
2013-05-19 09:00:00,58.9,53.0,30.34,South,180,0.0,2.0,82,0.00,,,0.00,229,weatherlink.com 1.10,2013-05-19 13:00:00,
2013-05-19 09:15:00,60.0,54.0,30.34,SSW,200,5.0,7.0,81,0.00,,,0.00,292,weatherlink.com 1.10,2013-05-19 13:15:00,
2013-05-19 09:31:00,60.4,54.0,30.34,SSW,212,4.0,7.0,78,0.00,,,0.00,318,weatherlink.com 1.10,2013-05-19 13:31:00,
2013-05-19 09:47:00,60.9,54.0,30.35,South,180,0.0,3.0,78,0.00,,,0.00,304,weatherlink.com 1.10,2013-05-19 13:47:00,
2013-05-19 10:01:00,61.3,54.0,30.35,SSE,167,2.0,3.0,77,0.00,,,0.00,390,weatherlink.com 1.10,2013-05-19 14:01:00,
2013-05-19 10:17:00,60.7,53.0,30.35,South,181,0.0,5.0,77,0.00,,,0.00,232,weatherlink.com 1.10,2013-05-19 14:17:00,
2013-05-19 10:31:00,60.5,54.0,30.35,SE,143,0.0,4.0,79,0.00,,,0.00,318,weatherlink.com 1.10,2013-05-19 14:31:00,
2013-05-19 10:46:00,63.0,54.0,30.35,SSE,150,0.0,5.0,73,0.00,,,0.00,538,weatherlink.com 1.10,2013-05-19 14:46:00,
2013-05-19 11:02:00,63.6,54.0,30.35,South,174,0.0,7.0,71,0.00,,,0.00,339,weatherlink.com 1.10,2013-05-19 15:02:00,
2013-05-19 11:17:00,62.2,53.0,30.35,South,172,1.0,8.0,72,0.00,,,0.00,123,weatherlink.com 1.10,2013-05-19 15:17:00,
2013-05-19 11:32:00,62.4,54.0,30.35,South,186,1.0,5.0,73,0.00,,,0.00,276,weatherlink.com 1.10,2013-05-19 15:32:00,
2013-05-19 11:47:00,61.0,53.0,30.35,SSE,157,0.0,4.0,75,0.00,,,0.00,227,weatherlink.com 1.10,2013-05-19 15:47:00,
2013-05-19 12:03:00,60.3,53.0,30.35,SE,135,3.0,3.0,77,0.00,,,0.00,221,weatherlink.com 1.10,2013-05-19 16:03:00,
2013-05-19 12:17:00,59.7,54.0,30.34,South,176,1.0,4.0,80,0.00,,,0.00,432,weatherlink.com 1.10,2013-05-19 16:17:00,
2013-05-19 12:32:00,59.7,54.0,30.34,South,174,1.0,5.0,82,0.00,,,0.00,306,weatherlink.com 1.10,2013-05-19 16:32:00,
2013-05-19 12:47:00,59.8,55.0,30.34,South,178,4.0,5.0,83,0.00,,,0.00,246,weatherlink.com 1.10,2013-05-19 16:47:00,
2013-05-19 13:03:00,58.9,54.0,30.33,SE,134,1.0,5.0,85,0.00,,,0.00,185,weatherlink.com 1.10,2013-05-19 17:03:00,
2013-05-19 13:19:00,58.9,54.0,30.33,ESE,120,0.0,3.0,85,0.00,,,0.00,232,weatherlink.com 1.10,2013-05-19 17:19:00,
2013-05-19 13:35:00,58.9,54.0,30.32,SE,124,2.0,5.0,84,0.00,,,0.00,253,weatherlink.com 1.10,2013-05-19 17:35:00,
2013-05-19 13:48:00,59.4,54.0,30.32,SE,139,1.0,4.0,83,0.00,,,0.00,204,weatherlink.com 1.10,2013-05-19 17:48:00,
2013-05-19 14:05:00,59.5,54.0,30.32,SSE,165,0.0,3.0,83,0.00,,,0.00,188,weatherlink.com 1.10,2013-05-19 18:05:00,
2013-05-19 14:19:00,59.7,54.0,30.32,ESE,119,3.0,4.0,81,0.00,,,0.00,197,weatherlink.com 1.10,2013-05-19 18:19:00,
2013-05-19 14:34:00,59.2,53.0,30.31,SE,130,0.0,4.0,81,0.00,,,0.00,118,weatherlink.com 1.10,2013-05-19 18:34:00,
2013-05-19 14:48:00,59.0,54.0,30.31,SW,214,0.0,4.0,84,0.00,,,0.00,105,weatherlink.com 1.10,2013-05-19 18:48:00,
2013-05-19 15:04:00,57.9,54.0,30.30,South,189,0.0,2.0,88,0.01,,,0.01,116,weatherlink.com 1.10,2013-05-19 19:04:00,
2013-05-19 15:19:00,57.7,55.0,30.30,SSW,201,0.0,1.0,90,0.01,,,0.01,84,weatherlink.com 1.10,2013-05-19 19:19:00,
2013-05-19 15:35:00,57.2,55.0,30.30,SSE,168,1.0,3.0,91,0.01,,,0.01,67,weatherlink.com 1.10,2013-05-19 19:35:00,
2013-05-19 15:49:00,56.9,55.0,30.30,SSE,168,0.0,2.0,92,0.01,,,0.01,69,weatherlink.com 1.10,2013-05-19 19:49:00,
2013-05-19 16:04:00,56.3,54.0,30.30,SSE,167,0.0,1.0,93,0.01,,,0.02,62,weatherlink.com 1.10,2013-05-19 20:04:00,
2013-05-19 16:20:00,56.1,54.0,30.29,SSE,167,0.0,1.0,94,0.03,,,0.04,69,weatherlink.com 1.10,2013-05-19 20:20:00,
2013-05-19 16:35:00,56.1,55.0,30.29,SSE,167,1.0,3.0,95,0.05,,,0.06,42,weatherlink.com 1.10,2013-05-19 20:35:00,
2013-05-19 16:50:00,55.9,55.0,30.29,SSE,167,1.0,2.0,96,0.06,,,0.07,26,weatherlink.com 1.10,2013-05-19 20:50:00,
2013-05-19 17:05:00,56.0,55.0,30.28,SSE,167,1.0,2.0,96,0.06,,,0.08,25,weatherlink.com 1.10,2013-05-19 21:05:00,
2013-05-19 17:20:00,55.8,55.0,30.28,SSE,167,0.0,1.0,96,0.04,,,0.08,21,weatherlink.com 1.10,2013-05-19 21:20:00,
2013-05-19 17:35:00,55.7,55.0,30.28,South,173,0.0,4.0,96,0.03,,,0.09,19,weatherlink.com 1.10,2013-05-19 21:35:00,
2013-05-19 17:50:00,55.6,55.0,30.28,South,173,0.0,2.0,96,0.03,,,0.10,23,weatherlink.com 1.10,2013-05-19 21:50:00,
2013-05-19 18:06:00,55.7,55.0,30.28,South,184,0.0,1.0,97,0.04,,,0.12,21,weatherlink.com 1.10,2013-05-19 22:06:00,
2013-05-19 18:20:00,55.5,54.0,30.28,South,185,0.0,1.0,96,0.05,,,0.13,23,weatherlink.com 1.10,2013-05-19 22:20:00,
2013-05-19 18:36:00,55.4,55.0,30.27,South,171,0.0,7.0,97,0.05,,,0.14,16,weatherlink.com 1.10,2013-05-19 22:36:00,
2013-05-19 18:51:00,55.3,55.0,30.27,SSW,196,2.0,5.0,97,0.05,,,0.15,12,weatherlink.com 1.10,2013-05-19 22:51:00,
2013-05-19 19:06:00,55.2,54.0,30.27,South,183,0.0,4.0,97,0.03,,,0.15,7,weatherlink.com 1.10,2013-05-19 23:06:00,
2013-05-19 19:22:00,55.2,54.0,30.27,South,189,1.0,5.0,97,0.03,,,0.16,5,weatherlink.com 1.10,2013-05-19 23:22:00,
2013-05-19 19:36:00,55.2,54.0,30.27,SSE,165,0.0,2.0,97,0.03,,,0.17,0,weatherlink.com 1.10,2013-05-19 23:36:00,
2013-05-19 19:51:00,55.1,54.0,30.26,South,170,2.0,5.0,97,0.06,,,0.21,0,weatherlink.com 1.10,2013-05-19 23:51:00,
2013-05-19 20:06:00,55.1,54.0,30.26,South,176,1.0,3.0,97,0.08,,,0.23,0,weatherlink.com 1.10,2013-05-20 00:06:00,
2013-05-19 20:21:00,55.2,54.0,30.26,SSE,161,2.0,9.0,97,0.09,,,0.25,0,weatherlink.com 1.10,2013-05-20 00:21:00,
2013-05-19 20:37:00,55.3,55.0,30.26,SSE,167,1.0,5.0,97,0.10,,,0.27,0,weatherlink.com 1.10,2013-05-20 00:37:00,
2013-05-19 20:52:00,55.4,55.0,30.26,SSE,150,0.0,5.0,97,0.08,,,0.29,0,weatherlink.com 1.10,2013-05-20 00:52:00,
2013-05-19 21:07:00,55.4,55.0,30.25,SSE,161,0.0,5.0,97,0.07,,,0.30,0,weatherlink.com 1.10,2013-05-20 01:07:00,
2013-05-19 21:22:00,55.6,55.0,30.25,South,188,0.0,1.0,97,0.06,,,0.31,0,weatherlink.com 1.10,2013-05-20 01:22:00,
2013-05-19 21:38:00,55.7,55.0,30.24,South,187,1.0,2.0,97,0.06,,,0.33,0,weatherlink.com 1.10,2013-05-20 01:38:00,
2013-05-19 21:52:00,55.8,55.0,30.24,SSW,195,0.0,7.0,97,0.05,,,0.34,0,weatherlink.com 1.10,2013-05-20 01:52:00,
2013-05-19 22:08:00,55.9,55.0,30.23,South,176,1.0,5.0,98,0.04,,,0.34,0,weatherlink.com 1.10,2013-05-20 02:08:00,
2013-05-19 22:24:00,56.0,56.0,30.23,South,186,0.0,7.0,98,0.03,,,0.34,0,weatherlink.com 1.10,2013-05-20 02:24:00,
2013-05-19 22:39:00,56.2,56.0,30.22,South,188,0.0,3.0,98,0.01,,,0.34,0,weatherlink.com 1.10,2013-05-20 02:39:00,
2013-05-19 22:54:00,56.4,56.0,30.22,SSE,161,1.0,5.0,98,0.03,,,0.37,0,weatherlink.com 1.10,2013-05-20 02:54:00,
2013-05-19 23:09:00,56.4,56.0,30.22,SSE,157,0.0,8.0,98,0.05,,,0.39,0,weatherlink.com 1.10,2013-05-20 03:09:00,
2013-05-19 23:24:00,56.4,56.0,30.22,SSW,197,0.0,3.0,98,0.05,,,0.39,0,weatherlink.com 1.10,2013-05-20 03:24:00,
2013-05-19 23:38:00,56.4,56.0,30.22,SSE,166,0.0,5.0,98,0.06,,,0.40,0,weatherlink.com 1.10,2013-05-20 03:38:00,
2013-05-19 23:54:00,56.5,56.0,30.21,SSW,192,2.0,4.0,98,0.06,,,0.43,0,weatherlink.com 1.10,2013-05-20 03:54:00,